KO4LFZ Weather Reports


Display with metric or nautical units.
time (UTC)temp
F
wind
direction
speed
MPH
gust
MPH
rain 1hr
in
rain 24hr
in
rain mn
in
humidity
%
barometer
mb
20260510212800 74 24 0.0 7.0 0.00 0.00 0.00 63 1016.3
20260510212258 74 30 0.0 6.0 0.00 0.00 0.00 64 1016.5
20260510211754 74 27 0.0 0.0 0.00 0.00 0.00 64 1016.2
20260510211250 74 14 0.0 0.0 0.00 0.00 0.00 65 1016.2
20260510210746 74 15 0.0 3.0 0.00 0.00 0.00 64 1016.0
20260510210240 74 42 0.0 0.0 0.00 0.00 0.00 66 1016.1
20260510205735 75 19 0.0 0.0 0.00 0.00 0.00 64 1016.3
20260510205230 75 15 3.0 8.0 0.00 0.00 0.00 63 1016.2
20260510204727 76 9 0.0 5.0 0.00 0.00 0.00 64 1016.2
20260510204223 76 34 0.0 6.0 0.00 0.00 0.00 63 1016.1
20260510203720 76 23 1.0 2.0 0.00 0.00 0.00 64 1016.0
20260510203217 77 32 0.0 5.0 0.00 0.00 0.00 63 1015.9
20260510202712 79 15 2.0 11.0 0.00 0.00 0.00 60 1016.0
20260510202207 80 359 0.0 9.0 0.00 0.00 0.00 59 1015.9
20260510201705 80 325 0.0 0.0 0.00 0.00 0.00 56 1016.2
20260510201201 79 329 0.0 0.0 0.00 0.00 0.00 58 1015.9
20260510200657 79 346 0.0 0.0 0.00 0.00 0.00 58 1016.1
20260510200156 79 352 0.0 0.0 0.00 0.00 0.00 58 1016.2
20260510195653 79 3 0.0 0.0 0.00 0.00 0.00 58 1016.3
20260510195149 80 26 0.0 0.0 0.00 0.00 0.00 59 1016.4
20260510194648 79 281 0.0 0.0 0.00 0.00 0.00 59 1016.2
20260510194145 79 343 0.0 0.0 0.00 0.00 0.00 59 1016.3
20260510193640 78 0 0.0 0.0 0.00 0.00 0.00 60 1016.3
20260510193136 78 352 0.0 0.0 0.00 0.00 0.00 60 1016.4
20260510192631 78 23 0.0 0.0 0.00 0.00 0.00 61 1016.4
20260510192127 78 21 0.0 0.0 0.00 0.00 0.00 61 1016.2
20260510191624 79 51 0.0 0.0 0.00 0.00 0.00 61 1016.4
20260510191120 79 40 0.0 0.0 0.00 0.00 0.00 57 1016.4
20260510190617 79 338 0.0 0.0 0.00 0.00 0.00 57 1016.3
20260510190115 80 14 0.0 0.0 0.00 0.00 0.00 58 1016.3
20260510185611 81 325 0.0 0.0 0.00 0.00 0.00 56 1016.4
20260510185109 79 19 0.0 0.0 0.00 0.00 0.00 55 1016.3
20260510184606 79 19 0.0 0.0 0.00 0.00 0.00 55 1016.3
20260510184102 80 67 0.0 0.0 0.00 0.00 0.00 55 1016.3
20260510183557 79 271 0.0 0.0 0.00 0.00 0.00 55 1016.3
20260510183052 79 353 0.0 0.0 0.00 0.00 0.00 54 1016.4
20260510182549 80 318 0.0 0.0 0.00 0.00 0.00 53 1016.3
20260510182044 80 318 0.0 0.0 0.00 0.00 0.00 53 1016.3
20260510181543 79 296 0.0 0.0 0.00 0.00 0.00 53 1016.2
20260510181038 78 266 0.0 0.0 0.00 0.00 0.00 55 1016.3
20260510180530 78 77 0.0 0.0 0.00 0.00 0.00 57 1016.2
20260510180028 79 57 0.0 0.0 0.00 0.00 0.00 57 1016.1
20260510175522 79 339 0.0 0.0 0.00 0.00 0.00 54 1016.1
20260510175019 78 327 0.0 0.0 0.00 0.00 0.00 54 1016.3
20260510174517 78 305 0.0 0.0 0.00 0.00 0.00 54 1016.4
20260510174014 77 350 0.0 0.0 0.00 0.00 0.00 56 1016.4
20260510173509 77 19 0.0 0.0 0.00 0.00 0.00 58 1016.4
20260510173006 77 4 0.0 0.0 0.00 0.00 0.00 57 1016.4
20260510172501 77 310 0.0 1.0 0.00 0.00 0.00 59 1016.4
20260510171958 77 340 0.0 0.0 0.00 0.00 0.00 57 1016.4
20260510171455 77 19 0.0 0.0 0.00 0.00 0.00 59 1016.7
20260510170951 77 322 0.0 0.0 0.00 0.00 0.00 58 1016.9
20260510170448 78 342 0.0 0.0 0.00 0.00 0.00 59 1016.7
20260510165944 77 7 0.0 0.0 0.00 0.00 0.00 60 1016.7
20260510165441 76 358 0.0 0.0 0.00 0.00 0.00 63 1016.6
20260510164937 77 355 0.0 0.0 0.00 0.00 0.00 61 1016.7
20260510164434 77 339 0.0 0.0 0.00 0.00 0.00 60 1016.6
20260510163934 77 339 0.0 0.0 0.00 0.00 0.00 60 1016.6
20260510163431 77 328 0.0 0.0 0.00 0.00 0.00 62 1016.9
20260510162925 77 30 0.0 0.0 0.00 0.00 0.00 59 1016.8
20260510162423 77 346 0.0 0.0 0.00 0.00 0.00 60 1016.5
20260510161919 77 1 0.0 0.0 0.00 0.00 0.00 60 1016.5
20260510161414 77 28 0.0 0.0 0.00 0.00 0.00 60 1016.7
20260510160911 77 348 0.0 0.0 0.00 0.00 0.00 59 1016.7
20260510160409 77 341 0.0 2.0 0.00 0.00 0.00 59 1016.5
20260510155902 77 339 0.0 0.0 0.00 0.00 0.00 61 1016.5
20260510155359 77 8 0.0 0.0 0.00 0.00 0.00 58 1016.4
20260510154855 78 6 0.0 0.0 0.00 0.00 0.00 56 1016.4
20260510154352 78 348 0.0 0.0 0.00 0.00 0.00 53 1016.4
20260510153845 78 351 0.0 0.0 0.00 0.00 0.00 53 1016.3
20260510153341 78 281 0.0 0.0 0.00 0.00 0.00 52 1016.1
20260510152838 77 223 0.0 0.0 0.00 0.00 0.00 53 1016.2
20260510152336 78 236 0.0 0.0 0.00 0.00 0.00 53 1016.1
20260510151832 77 310 0.0 0.0 0.00 0.00 0.00 51 1016.1
20260510151330 78 330 0.0 0.0 0.00 0.00 0.00 50 1015.9
20260510150825 77 297 0.0 0.0 0.00 0.00 0.00 51 1015.7
20260510150321 77 274 0.0 0.0 0.00 0.00 0.00 55 1015.6
20260510145818 77 310 0.0 0.0 0.00 0.00 0.00 53 1015.7
20260510145314 77 278 0.0 0.0 0.00 0.00 0.00 53 1015.8
20260510144811 77 276 0.0 0.0 0.00 0.00 0.00 52 1015.7
20260510144308 76 259 0.0 0.0 0.00 0.00 0.00 53 1015.6
20260510143807 76 243 0.0 0.0 0.00 0.00 0.00 53 1015.6
20260510143304 76 249 0.0 0.0 0.00 0.00 0.00 54 1015.9
20260510142800 76 245 0.0 0.0 0.00 0.00 0.00 56 1015.7
20260510142257 76 210 0.0 0.0 0.00 0.00 0.00 57 1015.7
20260510141754 76 230 0.0 0.0 0.00 0.00 0.00 58 1015.7
20260510141252 75 219 0.0 0.0 0.00 0.00 0.00 57 1015.5
20260510140749 75 234 0.0 0.0 0.00 0.00 0.00 59 1015.5
20260510140244 75 206 0.0 0.0 0.00 0.00 0.00 59 1015.3
20260510135738 74 218 0.0 0.0 0.00 0.00 0.00 60 1015.6
20260510135234 74 213 0.0 0.0 0.00 0.00 0.00 63 1015.4
20260510134732 73 205 0.0 0.0 0.00 0.00 0.00 62 1015.3
20260510134229 72 210 0.0 0.0 0.00 0.00 0.00 64 1015.4
20260510133724 71 206 0.0 0.0 0.00 0.00 0.00 66 1015.4
20260510133220 70 201 0.0 0.0 0.00 0.00 0.00 67 1015.6
20260510132716 69 202 0.0 0.0 0.00 0.00 0.00 71 1015.5
20260510132214 68 192 0.0 0.0 0.00 0.00 0.00 73 1015.3
20260510131711 68 200 0.0 0.0 0.00 0.00 0.00 73 1015.4
20260510131209 67 193 0.0 0.0 0.00 0.00 0.00 74 1015.8
20260510130705 66 200 0.0 0.0 0.00 0.00 0.00 74 1015.6
20260510130203 65 204 0.0 0.0 0.00 0.00 0.00 76 1015.4
20260510125658 65 198 0.0 0.0 0.00 0.00 0.00 78 1015.3
20260510125155 65 192 0.0 0.0 0.00 0.00 0.00 77 1015.5
20260510124652 65 209 0.0 0.0 0.00 0.00 0.00 77 1015.6
20260510124149 64 206 0.0 0.0 0.00 0.00 0.00 78 1015.3
20260510123644 64 205 0.0 0.0 0.00 0.00 0.00 79 1015.2
20260510123140 63 206 0.0 0.0 0.00 0.00 0.00 79 1015.3
20260510122637 63 203 0.0 0.0 0.00 0.00 0.00 82 1015.1
20260510122133 62 223 0.0 0.0 0.00 0.00 0.00 81 1015.2
20260510121630 62 225 0.0 0.0 0.00 0.00 0.00 83 1015.2
20260510121127 61 217 0.0 0.0 0.00 0.00 0.00 85 1015.0
20260510120625 60 206 0.0 0.0 0.00 0.00 0.00 83 1015.1
20260510120120 60 222 0.0 0.0 0.00 0.00 0.00 85 1015.2
20260510115617 60 226 0.0 0.0 0.00 0.00 0.00 86 1015.2
20260510115114 60 225 0.0 0.0 0.00 0.00 0.00 87 1015.1
20260510114610 59 227 0.0 0.0 0.00 0.00 0.00 86 1015.1
20260510114106 59 223 0.0 0.0 0.00 0.00 0.00 87 1014.9
20260510113601 58 220 0.0 0.0 0.00 0.00 0.00 87 1014.8
20260510113059 57 205 0.0 0.0 0.00 0.00 0.00 87 1014.7
20260510112556 57 205 0.0 0.0 0.00 0.00 0.00 87 1014.4
20260510112052 56 207 0.0 0.0 0.00 0.00 0.00 88 1014.4
20260510111549 56 195 0.0 0.0 0.00 0.00 0.00 89 1014.3
20260510111045 56 206 0.0 0.0 0.00 0.00 0.00 88 1014.1
20260510110541 56 195 0.0 0.0 0.00 0.00 0.00 87 1014.1
20260510110037 56 203 0.0 0.0 0.00 0.00 0.00 87 1014.0
20260510105533 56 206 0.0 0.0 0.00 0.00 0.00 88 1014.0
20260510105028 56 230 0.0 0.0 0.00 0.00 0.00 87 1013.9
20260510104525 56 206 0.0 0.0 0.00 0.00 0.00 87 1014.0
20260510104020 57 222 0.0 0.0 0.00 0.00 0.00 85 1013.9
20260510103402 57 224 0.0 0.0 0.00 0.00 0.00 83 1014.0
20260510102857 57 224 0.0 0.0 0.00 0.00 0.00 83 1014.0
20260510102352 57 201 0.0 0.0 0.00 0.00 0.00 84 1014.1
20260510101850 57 226 0.0 0.0 0.00 0.00 0.00 83 1014.1
20260510101342 57 184 0.0 0.0 0.00 0.00 0.00 83 1014.2
20260510100838 57 213 0.0 0.0 0.00 0.00 0.00 83 1014.0
20260510100336 57 201 0.0 0.0 0.00 0.00 0.00 84 1013.8
20260510095832 57 268 0.0 0.0 0.00 0.00 0.00 85 1013.9
20260510095327 57 185 0.0 0.0 0.00 0.00 0.00 86 1014.0
20260510094821 56 350 0.0 0.0 0.00 0.00 0.00 86 1014.1
20260510094316 56 95 0.0 0.0 0.00 0.00 0.00 87 1013.5
20260510093813 56 5 0.0 0.0 0.00 0.00 0.00 87 1013.8
20260510093309 56 357 0.0 0.0 0.00 0.00 0.00 85 1013.8
20260510092806 57 339 0.0 0.0 0.00 0.00 0.00 84 1013.3
20260510092301 58 199 0.0 0.0 0.00 0.00 0.00 80 1013.2
20260510091757 59 233 0.0 0.0 0.00 0.00 0.00 77 1013.0
20260510091255 62 227 0.0 0.0 0.00 0.00 0.00 72 1013.1
20260510090751 63 189 0.0 0.0 0.00 0.00 0.00 66 1012.8
20260510090248 63 187 0.0 0.0 0.00 0.00 0.00 66 1012.8
20260510085744 61 207 0.0 0.0 0.00 0.00 0.00 69 1012.7
20260510085238 61 207 0.0 0.0 0.00 0.00 0.00 69 1012.7
20260510084734 60 177 0.0 0.0 0.00 0.00 0.00 75 1012.8
20260510084231 60 199 0.0 0.0 0.00 0.00 0.00 74 1012.9
20260510083727 59 213 0.0 0.0 0.00 0.00 0.00 75 1012.6
20260510083225 58 223 0.0 0.0 0.00 0.00 0.00 79 1012.6
20260510082720 58 223 0.0 0.0 0.00 0.00 0.00 79 1012.6
20260510082217 58 222 0.0 0.0 0.00 0.00 0.00 78 1012.6
20260510081716 59 209 0.0 0.0 0.00 0.00 0.00 80 1012.7
20260510081212 58 213 0.0 0.0 0.00 0.00 0.00 79 1012.6
20260510080707 59 224 0.0 0.0 0.00 0.00 0.00 76 1012.6
20260510080204 60 224 0.0 0.0 0.00 0.00 0.00 74 1012.3
20260510075701 62 223 0.0 0.0 0.00 0.00 0.00 70 1012.2
20260510075158 64 216 0.0 0.0 0.00 0.00 0.00 68 1012.1
20260510074655 64 209 0.0 0.0 0.00 0.00 0.00 64 1012.1
20260510074151 64 206 0.0 0.0 0.00 0.00 0.00 63 1012.1
20260510073648 64 190 0.0 0.0 0.00 0.00 0.00 64 1012.2
20260510073144 62 175 0.0 0.0 0.00 0.00 0.00 67 1012.2
20260510072640 61 216 0.0 0.0 0.00 0.00 0.00 72 1012.2
20260510072136 62 204 0.0 0.0 0.00 0.00 0.00 72 1012.4
20260510071626 62 217 0.0 0.0 0.00 0.00 0.00 70 1012.3
20260510071124 62 210 0.0 0.0 0.00 0.00 0.00 67 1012.5
20260510070621 62 214 0.0 0.0 0.00 0.00 0.00 67 1012.5
20260510070119 63 218 0.0 0.0 0.00 0.00 0.00 69 1012.4
20260510065615 63 215 0.0 0.0 0.00 0.00 0.00 68 1012.4
20260510065110 63 222 0.0 0.0 0.00 0.00 0.00 67 1012.5
20260510064606 65 222 0.0 0.0 0.00 0.00 0.00 66 1012.4
20260510064103 66 220 0.0 0.0 0.00 0.00 0.00 64 1012.6
20260510063555 65 202 0.0 0.0 0.00 0.00 0.00 60 1012.5
20260510063052 66 209 0.0 0.0 0.00 0.00 0.00 61 1012.4
20260510062548 66 193 0.0 0.0 0.00 0.00 0.00 61 1012.4
20260510062043 66 192 0.0 0.0 0.00 0.00 0.00 62 1012.1
20260510061540 66 187 0.0 0.0 0.00 0.00 0.00 61 1012.4
20260510061037 66 187 0.0 0.0 0.00 0.00 0.00 61 1012.4
20260510060533 66 194 0.0 0.0 0.00 0.00 0.00 60 1012.5
20260510060029 66 208 0.0 0.0 0.00 0.00 0.00 60 1012.2
20260510055525 67 190 0.0 0.0 0.00 0.00 0.00 59 1012.1
20260510055024 66 193 0.0 0.0 0.00 0.00 0.00 60 1012.2
20260510054520 66 207 0.0 0.0 0.00 0.00 0.00 61 1012.1
20260510054015 66 197 0.0 0.0 0.00 0.00 0.00 61 1012.1
20260510053510 66 193 0.0 0.0 0.00 0.00 0.00 61 1012.2
20260510053007 66 191 0.0 0.0 0.00 0.00 0.00 61 1012.2
20260510052503 66 192 0.0 0.0 0.00 0.00 0.00 61 1011.9
20260510051959 66 198 0.0 0.0 0.00 0.00 0.00 62 1011.9
20260510051454 66 195 0.0 0.0 0.00 0.00 0.00 62 1012.1
20260510050951 66 203 0.0 0.0 0.00 0.00 0.00 62 1012.1
20260510050449 66 195 0.0 0.0 0.00 0.00 0.00 61 1011.7
20260510045945 66 190 0.0 0.0 0.00 0.00 0.00 62 1011.9
20260510045443 66 197 0.0 0.0 0.00 0.00 0.00 61 1011.9
20260510044939 66 191 0.0 0.0 0.00 0.00 0.00 61 1011.9
20260510044436 67 191 0.0 0.0 0.00 0.00 0.00 61 1011.9
20260510043933 67 213 0.0 0.0 0.00 0.00 0.00 60 1011.5
20260510043428 67 213 0.0 0.0 0.00 0.00 0.00 60 1011.5
20260510042927 67 201 0.0 0.0 0.00 0.00 0.00 61 1011.8
20260510042423 67 188 0.0 0.0 0.00 0.00 0.00 61 1011.7
20260510041918 67 173 0.0 0.0 0.00 0.00 0.00 59 1011.9
20260510041416 68 200 0.0 0.0 0.00 0.00 0.00 59 1011.9
20260510040914 67 179 0.0 0.0 0.00 0.00 0.00 59 1011.7
20260510040410 67 179 0.0 0.0 0.00 0.00 0.00 59 1011.7
20260510035906 68 181 0.0 0.0 0.00 0.00 0.00 59 1011.5
20260510035402 68 191 0.0 0.0 0.00 0.00 0.00 59 1011.8
20260510034857 68 183 0.0 0.0 0.00 0.00 0.00 59 1011.8
20260510034356 68 194 0.0 0.0 0.00 0.00 0.00 59 1011.9
20260510033852 68 201 0.0 0.0 0.00 0.00 0.00 58 1011.7
20260510033348 68 205 0.0 0.0 0.00 0.00 0.00 57 1011.7
20260510032844 68 198 0.0 0.0 0.00 0.00 0.00 56 1011.8
20260510032342 69 193 0.0 0.0 0.00 0.00 0.00 56 1011.8
20260510031837 69 184 0.0 0.0 0.00 0.00 0.00 55 1011.8
20260510031333 69 191 0.0 0.0 0.00 0.00 0.00 55 1011.9
20260510030833 69 175 0.0 0.0 0.00 0.00 0.00 54 1012.0
20260510030329 69 180 0.0 0.0 0.00 0.00 0.00 54 1011.9
20260510025826 69 199 0.0 0.0 0.00 0.00 0.00 53 1011.6
20260510025324 69 180 0.0 0.0 0.00 0.00 0.00 52 1011.9
20260510024821 69 177 0.0 0.0 0.00 0.00 0.00 52 1011.7
20260510024318 69 179 0.0 0.0 0.00 0.00 0.00 52 1011.6
20260510023814 69 188 0.0 0.0 0.00 0.00 0.00 52 1011.6
20260510023310 69 181 0.0 0.0 0.00 0.00 0.00 53 1011.7
20260510022808 69 214 0.0 0.0 0.00 0.00 0.00 52 1011.5
20260510022307 68 186 0.0 0.0 0.00 0.00 0.00 55 1011.6
20260510021806 69 221 0.0 0.0 0.00 0.00 0.00 58 1011.5
20260510021304 71 221 0.0 0.0 0.00 0.00 0.00 52 1011.4
20260510020759 71 203 0.0 0.0 0.00 0.00 0.00 46 1011.5
20260510020254 70 187 0.0 0.0 0.00 0.00 0.00 48 1011.1
20260510015750 69 214 0.0 0.0 0.00 0.00 0.00 53 1011.3
20260510015247 71 209 0.0 0.0 0.00 0.00 0.00 51 1011.0
20260510014742 71 201 0.0 0.0 0.00 0.00 0.00 52 1010.9
20260510014239 72 187 0.0 0.0 0.00 0.00 0.00 47 1010.9
20260510013735 71 189 0.0 0.0 0.00 0.00 0.00 48 1010.9
20260510013231 70 195 0.0 0.0 0.00 0.00 0.00 50 1011.1
20260510012725 69 179 0.0 0.0 0.00 0.00 0.00 52 1010.8
20260510012220 69 208 0.0 0.0 0.00 0.00 0.00 55 1010.9
20260510011714 70 214 0.0 0.0 0.00 0.00 0.00 55 1010.6
20260510011210 70 211 0.0 0.0 0.00 0.00 0.00 54 1010.7
20260510010707 71 210 0.0 0.0 0.00 0.00 0.00 54 1010.4
20260510010204 72 210 0.0 0.0 0.00 0.00 0.00 52 1010.5
20260510005701 73 210 0.0 0.0 0.00 0.00 0.00 52 1010.4
20260510005157 74 201 0.0 0.0 0.00 0.00 0.00 46 1010.4
20260510004655 75 197 0.0 0.0 0.00 0.00 0.00 46 1010.5
20260510004153 75 201 0.0 0.0 0.00 0.00 0.00 45 1010.4
20260510003604 77 210 0.0 0.0 0.00 0.00 0.00 42 1010.1
20260510003100 77 210 0.0 0.0 0.00 0.00 0.00 42 1010.1
20260510002555 77 206 0.0 0.0 0.00 0.00 0.00 42 1010.0
20260510002052 78 216 0.0 0.0 0.00 0.00 0.00 46 1010.2
20260510001549 78 202 0.0 0.0 0.00 0.00 0.00 44 1009.9
20260510001048 79 206 0.0 0.0 0.00 0.00 0.00 43 1010.1
20260510000542 79 211 0.0 0.0 0.00 0.00 0.00 43 1010.0
20260510000039 80 218 0.0 0.0 0.00 0.00 0.00 40 1010.0
20260509235536 80 228 0.0 0.0 0.00 0.00 0.00 40 1009.8
20260509235033 80 221 0.0 0.0 0.00 0.00 0.00 40 1010.0
20260509234529 80 227 0.0 0.0 0.00 0.00 0.00 41 1010.1
20260509234027 80 207 0.0 0.0 0.00 0.00 0.00 39 1009.6
20260509233524 80 230 0.0 0.0 0.00 0.00 0.00 38 1009.9
20260509233021 81 215 0.0 0.0 0.00 0.00 0.00 37 1009.9
20260509232518 81 215 0.0 0.0 0.00 0.00 0.00 37 1009.9
20260509232015 81 241 0.0 0.0 0.00 0.00 0.00 37 1009.8
20260509231511 81 227 0.0 0.0 0.00 0.00 0.00 38 1009.8
20260509231008 81 245 0.0 0.0 0.00 0.00 0.00 37 1009.9
20260509230505 82 266 0.0 0.0 0.00 0.00 0.00 37 1009.6
20260509225242 81 243 0.0 0.0 0.00 0.00 0.00 37 1009.7
20260509224738 81 243 0.0 0.0 0.00 0.00 0.00 37 1009.7
20260509224236 81 257 0.0 0.0 0.00 0.00 0.00 36 1010.1
20260509223732 81 209 0.0 0.0 0.00 0.00 0.00 37 1010.0
20260509223229 82 235 0.0 0.0 0.00 0.00 0.00 37 1009.8
20260509222725 81 210 0.0 0.0 0.00 0.00 0.00 38 1009.8
20260509221938 81 216 0.0 0.0 0.00 0.00 0.00 39 1009.7
20260509221434 81 216 0.0 0.0 0.00 0.00 0.00 39 1009.7
20260509220930 81 216 0.0 0.0 0.00 0.00 0.00 39 1009.7
20260509220426 82 237 0.0 0.0 0.00 0.00 0.00 39 1009.8
20260509215923 83 215 0.0 0.0 0.00 0.00 0.00 39 1009.6
20260509215418 84 339 0.0 0.0 0.00 0.00 0.00 33 1009.8
20260509214916 83 236 0.0 0.0 0.00 0.00 0.00 33 1009.9
20260509214413 84 222 0.0 0.0 0.00 0.00 0.00 32 1009.9
20260509213910 84 300 0.0 0.0 0.00 0.00 0.00 34 1009.6
20260509213405 85 209 0.0 0.0 0.00 0.00 0.00 34 1009.8